Airfield :







YOU CAN JOIN US ON...

 
LOGIN :

Register | Disclaimer

   EN    FR    IT 

 









Legend :    VFR   Marginal VFR   IFR   Intensive IFR   Very Intensive IFR
Visi :
Ceiling :
>= 8 km
>= 3000ft
5 to 8 km
1000 to 3000 ft
1500m to 5 km
500 to 1000 ft
800 to 1500m
200 to 500 ft
< 800m
< 200 ft
Symbols :   Thunderstorms  Fog  Heavy snow  Heavy precipitations  Wind > 20 kt






- Airport Elevation : 10 ft
- IATA code : BRX


MDBH - Maria Montez Int.

CURRENT METAR :
  • 241500Z 13010KT 9999 FEW018CB FEW020 SCT300 31/27 Q1014 CB/NE

EXPIRED METARs :
  • 241400Z 13008KT 9999 SCT018 BKN300 31/26 Q1014
  • 241300Z 21005KT 9999 FEW016 SCT300 28/25 Q1014

TAF TAF MDBH
Valid from the 24 at 12:00 until the 25 at 12:00 UTC


241000Z 2412/2512 13008KT 9999 FEW018
BECMG 2410/2412 27005KT
MDCS FIR / North America



MET'MAP, your aeronautical weather chart ! - Copyright ORBIFLY December 2007 - Disclaimer

ORBIFLY MET'MAP TEAM :

Programming & Development : Alexandra Zaïnal
Concept & original design : Baudouin d'Aumeries
Assistance for programming : Marc-Olivier Méhu
Technical & hardware support : Manuel Goepfert

Contact : metmap@orbifly.com




SOURCES & CREDITS :

   NOAA